METEOR 2-6 DEB, 36307

Orbit data source: Space-Track

METEOR 2-6 DEB, 36307 is space debris in LEO originally from a launch on Tue, 09 Sep 1980 UTC launched from the Plesetsk Missile And Space Complex (PKMTR). Debris objects in space refer to the collection of defunct objects orbiting the Earth. Examples of debris include non-operational satellites, rocket bodies, and fragments generated from explosions, collisions, or faulty payload assembly.

Loading next visibility...
METEOR 2-6 DEB details
Identifier
36307, 1980-073K
Orbit
LEO
Last TLE update9 months ago
Origin
Flag of CISKVR (CIS)
ManufacturerUnknown
MissionSpacecraft
Bus & MotorUnknown
MassUnknown
Launch date (UTC)
1980-09-09 (44 years ago)
Launch vehicleUnknown
Launch site
Plesetsk Missile And Space Complex (PKMTR)
Object type
Payload
Rocket body
Debris
Shape & HBRUnknown
Radar Cross SectionSmall (<0.1 m²)

Expand to show TLE details & history

TLE from 9 months ago
0 METEOR 2-6 DEB
1 36307U 80073K   24098.16850957  .00011474  00000-0  35244-2 0  9998
2 36307  81.2136  41.3961 0020187 321.5536  38.4213 14.41419688543468
Epoch: 2024-04-07T04:02Z
Definitive object data (Epoch: 2024-04-07T04:02:39.226Z)
Latitude0.00001°
Longitude144.80614°
Altitude745.482 km
Speed7.488 km/s
True Right ascension02h 45m 35s
True Declination0° 00' 00"
Sunlit
Object was in daylight at TLE epoch
Visualization TLE readout
Latitude-81.03984°
Longitude155.63265°
Altitude747.353 km
Speed7.487 km/s
Apparent Right ascension23h 56m 32s
Apparent Declination-63° 40' 34"
Sunlit
Object is in daylight
Visualization observer readout
Local Sidereal Time11:14:40
Azimuth191.179° SSW
Elevation-65.448°
Doppler factor1
Orbital elements
Apogee altitude765.337 km
Perigee altitude736.554 km
Semi-major axis7,129.082 km
Eccentricity0.0020187
Inclination81.2136°
RAAN41.3961°
Arg. of periapsis321.5536°
True anomaly38.56534°
Mean anomaly38.4213°
Eccentric anomaly38.49329°
Mean motion3.60573 °/min
BSTAR0.0035244
Orbital period99.84 mins
Loading maneuver chart data...
Loading historical data...
Loading historical data...
Loading historical data...
Loading historical data...
Loading historical data...
Loading historical data...
Loading historical data...

METEOR 2-6 DEB Visibility forecast

Observer location: undefined°, undefined

Span
Click to sort rows by Start time (UTC) header in descending order
Start Az.
Max El. time (UTC)
Max El. Az.
Max El.
End time (UTC)
End Az.
6 mins2024-12-26 19:30:15.059Z28.387° NE2024-12-26 19:33:15.059Z68.393° E18.363°2024-12-26 19:36:15.059Z109.361° ESE
8 mins2024-12-26 21:10:15.059Z332.676° NNW2024-12-26 21:14:15.059Z256.013° W34.7°2024-12-26 21:18:15.059Z197.132° SSW
4 mins2024-12-27 08:21:15.059Z106.622° ESE2024-12-27 08:23:15.059Z79.053° E15.34°2024-12-27 08:25:15.059Z54.22° ENE
8 mins2024-12-27 09:59:15.059Z212.109° SW2024-12-27 10:02:15.059Z264.639° W37.696°2024-12-27 10:07:15.059Z358.152° N
|